[[{"header":{"parameterUnit":"m.s-1","parameterCategory":1,"la1":30.2991,"la2":30.254,"lo1":-89.0895,"lo2":-89.0444,"dy":0.0017,"dx":0.0017,"nx":28,"ny":28,"refTime":"2025-06-21T21:00:00:Z","depth":0,"parameterNumber":2,"parameterNumberName":"U-component_of_WINDS"},"data":[0,0,0,0,0,0,0,0,0,0,0,0,0,0,0,0,0,0,0,0,0,0,0,0,0,0,0,0,0,0,0,0,0,0,0,0,0,0,0,0,0,0,0,0,0,0,0,0,0,0,0,0,0,0,0,0,0,0,-0.9847,-0.9848,0,-0.9968,-0.9969,-0.997,-1.0007,-1.0006,-1.0006,-1.0005,-1.0131,-1.0135,-1.0139,0,0,0,0,0,0,0,0,0,0,0,0,0,-0.9651,-0.9654,-0.9847,-0.9848,-0.985,-0.9967,-0.9969,-0.9971,-1.0007,-1.0006,-1.0005,-1.0005,-1.013,-1.0135,-1.014,0,0,0,0,0,0,0,0,0,0,0,0,0,-0.975,-0.9655,-0.9846,-0.9882,-0.9886,-0.9967,-0.9969,-0.9971,-1.0007,-1.0006,-1.0005,-1.0004,-1.0129,-1.0134,-1.014,-1.0195,0,0,-1.0158,-1.0161,0,0,0,0,0,0,0,0,-0.9744,-0.9757,-0.9875,-0.988,-0.9885,-0.9971,-0.9946,-1.0046,-1.0007,-0.9961,-1.0005,-1.0004,-1.0079,-1.0089,-1.0114,-1.0201,-1.0206,-1.0159,-1.0162,-1.0165,-1.0167,0,0,0,0,0,0,0,-0.9737,-0.9752,-0.9895,-0.9877,-0.9883,-0.9893,-0.9906,-0.9965,-1.0024,-0.9965,-0.9968,-0.9982,-1.0082,-1.0108,-1.0117,-1.0208,-1.0159,-1.0164,-1.0168,-1.017,-1.0348,-1.0349,0,0,0,0,0,0,-0.9724,-0.9746,-0.9891,-0.9898,-0.9811,-0.9897,-0.9912,-0.9944,-1.0023,-1.0035,-0.9983,-0.9983,-1.0098,-1.011,-1.0122,-1.0192,-1.0165,-1.017,-1.0174,-1.0347,-1.0348,-1.035,0,0,0,0,0,0,-0.972,-0.9737,-0.9886,-0.9823,-0.9843,-0.9901,-0.9938,-0.9947,-0.9974,-1.0036,-1.0047,-0.9999,-1.0098,-1.0113,-1.0177,-1.0197,-1.0173,-1.0178,-1.0345,-1.0347,-1.0349,-1.0332,0,0,0,0,0,0,-0.9714,-0.9735,-0.9755,-0.9823,-0.9846,-0.9938,-0.9939,-0.995,-0.9983,-0.9985,-1.0054,-1.0065,-1.0099,-1.0168,-1.0182,-1.0204,-1.0183,-1.0344,-1.0346,-1.0348,-1.0331,-1.0333,-1.0335,0,0,0,0,0,-0.9707,-0.9746,-0.9756,-0.9774,-0.9873,-0.9939,-0.9952,-0.9989,-0.9985,-1.0007,-1.0047,-1.0063,-1.0192,-1.0174,-1.0191,-1.0215,-1.0343,-1.0346,-1.0348,-1.033,-1.0333,-1.0335,0,0,0,0,0,0,-0.968,-0.9756,-0.9768,-0.983,-0.9878,-0.9945,-0.9974,-0.999,-1.0041,-1.0041,-1.0085,-1.0101,-1.0161,-1.0194,-1.0173,-1.0273,-1.0268,-1.0274,-1.0249,-1.0251,-1.0253,-1.0244,-1.0188,0,0,0,0,0,-0.9681,-0.9728,-0.9792,-0.9841,-0.9864,-0.9914,-0.9945,-0.9969,-1.0021,-1.0041,-1.0086,-1.0136,-1.0188,-1.0222,-1.0273,-1.0336,-1.0352,-1.0361,-1.0363,-1.0364,-1.0369,-1.0406,-1.0411,-1.0358,-1.0358,-1.0358,0,0,-0.9685,-0.9732,-0.9759,-0.9837,-0.9876,-0.9924,-0.9931,-0.9982,-1.0018,-1.0049,-1.0112,-1.0146,-1.0205,-1.0269,-1.0299,-1.0299,-1.0387,-1.0367,-1.0368,-1.0373,-1.0409,-1.0414,-1.0418,-1.036,-1.036,-1.036,0,0,-0.9716,-0.9755,-0.9801,-0.9841,-0.99,-0.9934,-0.9945,-1.001,-1.0034,-1.0097,-1.0121,-1.0166,-1.0254,-1.0296,-1.0328,-1.0375,-1.0392,-1.039,-1.04,-1.0435,-1.044,-1.0444,-1.0461,-1.0467,-1.0395,-1.0395,-1.0395,0,-0.9713,-0.9785,-0.9823,-0.9872,-0.9906,-0.9935,-0.9982,-1.0019,-1.0093,-1.0116,-1.0114,-1.0226,-1.0268,-1.0342,-1.0354,-1.0379,-1.0394,-1.0383,-1.0436,-1.044,-1.0444,-1.0462,-1.0468,-1.0395,-1.0395,-1.0395,-1.0395,0,-0.9779,-0.9829,-0.9858,-0.9928,-0.9965,-1.0013,-1.0059,-1.0093,-1.0114,-1.0148,-1.0213,-1.0264,-1.0326,-1.0346,-1.0367,-1.0423,-1.0421,-1.0427,-1.0423,-1.0448,-1.0465,-1.0472,-1.0394,-1.0394,-1.0394,-1.0394,0,0,-0.9797,-0.9886,-0.9897,-0.9929,-0.9997,-1.0037,-1.0087,-1.0147,-1.0175,-1.0225,-1.0269,-1.0343,-1.0349,-1.0386,-1.0412,-1.0443,-1.0478,-1.0446,-1.0448,-1.0451,-1.0544,-1.054,-1.0547,-1.0489,-1.0491,-1.0492,-1.054,0,-0.9837,-0.9925,-0.9961,-1.0033,-1.0081,-1.0109,-1.0153,-1.02,-1.0233,-1.0279,-1.0316,-1.0368,-1.0372,-1.0394,-1.0426,-1.0467,-1.0498,-1.0464,-1.0532,-1.0533,-1.0516,-1.0556,-1.0551,-1.0593,-1.0546,-1.0548,-1.0548,0,-0.9895,-0.9945,-1.0022,-1.0085,-1.0106,-1.0144,-1.0203,-1.0246,-1.03,-1.0322,-1.0363,-1.0388,-1.0443,-1.0435,-1.0511,-1.0487,-1.0517,-1.0542,-1.0544,-1.0552,-1.0543,-1.0565,-1.0608,-1.0614,-1.0559,-1.0558,-1.0557,0,-0.9901,-0.9988,-1.0045,-1.0072,-1.0146,-1.0173,-1.0205,-1.0259,-1.0293,-1.0344,-1.0367,-1.0424,-1.0456,-1.05,-1.054,-1.0531,-1.0613,-1.0609,-1.0634,-1.0633,-1.0651,-1.0649,-1.0699,-1.0669,-1.0668,-1.0668,-1.0668,0,-0.9943,-0.9989,-1.0049,-1.0084,-1.0137,-1.0178,-1.023,-1.0264,-1.0312,-1.0355,-1.0384,-1.0424,-1.0474,-1.0521,-1.0553,-1.0612,-1.0626,-1.0646,-1.0654,-1.0644,-1.0641,-1.0665,-1.0663,-1.067,-1.067,-1.0669,-1.0669,0,-0.9959,-1.0001,-1.0065,-1.013,-1.0148,-1.0184,-1.0241,-1.0277,-1.0311,-1.0366,-1.0381,-1.0435,-1.0492,-1.0536,-1.0611,-1.0632,-1.0695,-1.0703,-1.0676,-1.068,-1.0704,-1.0701,-1.0771,-1.0782,-1.0743,-1.0743,-1.0743,0,-0.9983,-1.0019,-1.0088,-1.0119,-1.0151,-1.02,-1.0235,-1.0276,-1.0312,-1.0376,-1.0405,-1.0464,-1.0513,-1.0603,-1.065,-1.0708,-1.0718,-1.0738,-1.0727,-1.0716,-1.0719,-1.0717,-1.0721,-1.074,-1.074,-1.074,-1.074,0,-1.0022,-1.0041,-1.0089,-1.0145,-1.0185,-1.0232,-1.0279,-1.0302,-1.0353,-1.0391,-1.0449,-1.0487,-1.0563,-1.0622,-1.0684,-1.0719,-1.0739,-1.0744,-1.0753,-1.0743,-1.0726,-1.0736,-1.0681,-1.0742,-1.0742,-1.0742,-1.0742,-1.0742,-1.0044,-1.0077,-1.0131,-1.0184,-1.0223,-1.0267,-1.0304,-1.0343,-1.0391,-1.0456,-1.0477,-1.0538,-1.0592,-1.0677,-1.0713,-1.0761,-1.0762,-1.0775,-1.0779,-1.0781,-1.0781,-1.0717,-1.0773,-1.0773,-1.0773,-1.0773,-1.0773,0,-1.0085,-1.012,-1.0169,-1.0233,-1.0275,-1.0289,-1.0341,-1.0376,-1.0428,-1.0477,-1.0525,-1.0592,-1.0649,-1.07,-1.076,-1.0789,-1.0799,-1.0803,-1.0802,-1.081,-1.0776,-1.0763,-1.0794,-1.0794,-1.0794,-1.0793,-1.0793,-1.0793,-1.0111,-1.0169,-1.0194,-1.0272,-1.0308,-1.0366,-1.0395,-1.0435,-1.0474,-1.0548,-1.0595,-1.0627,-1.0678,-1.0741,-1.0794,-1.0808,-1.0829,-1.0831,-1.0847,-1.0815,-1.0812,-1.081,-1.0797,-1.0835,-1.0835,-1.0877,-1.0877,-1.0877]},{"header":{"parameterUnit":"m.s-1","parameterCategory":1,"la1":30.2991,"la2":30.254,"lo1":-89.0895,"lo2":-89.0444,"dy":0.0017,"dx":0.0017,"nx":28,"ny":28,"refTime":"2025-06-21T21:00:00:Z","depth":0,"parameterNumber":3,"parameterNumberName":"V-component_of_WINDS"},"data":[0,0,0,0,0,0,0,0,0,0,0,0,0,0,0,0,0,0,0,0,0,0,0,0,0,0,0,0,0,0,0,0,0,0,0,0,0,0,0,0,0,0,0,0,0,0,0,0,0,0,0,0,0,0,0,0,0,0,3.1132,3.1132,0,3.1154,3.1155,3.1155,3.1095,3.1093,3.1091,3.1089,3.1111,3.1113,3.1116,0,0,0,0,0,0,0,0,0,0,0,0,0,3.1035,3.1037,3.1132,3.1132,3.1133,3.1154,3.1155,3.1155,3.1095,3.1093,3.1091,3.1089,3.111,3.1113,3.1116,0,0,0,0,0,0,0,0,0,0,0,0,0,3.107,3.1038,3.1132,3.1105,3.1103,3.1154,3.1155,3.1155,3.1096,3.1093,3.109,3.1088,3.1109,3.1113,3.1116,3.1194,0,0,3.1127,3.1128,0,0,0,0,0,0,0,0,3.1068,3.1073,3.1109,3.1107,3.1105,3.1119,3.1128,3.1168,3.1096,3.1099,3.1089,3.1086,3.1116,3.1119,3.1129,3.1195,3.1196,3.1127,3.1129,3.1131,3.1132,0,0,0,0,0,0,0,3.1065,3.1072,3.1141,3.111,3.1107,3.1092,3.1093,3.1136,3.1123,3.1098,3.1094,3.1097,3.1114,3.1126,3.1129,3.1196,3.1127,3.113,3.1132,3.1134,3.1324,3.1327,0,0,0,0,0,0,3.1067,3.107,3.114,3.1141,3.1079,3.1096,3.1098,3.1117,3.1122,3.112,3.11,3.1095,3.1121,3.1125,3.113,3.1219,3.1131,3.1134,3.1136,3.1321,3.1324,3.1328,0,0,0,0,0,0,3.1065,3.1074,3.1139,3.1105,3.1112,3.11,3.1123,3.1119,3.1131,3.1123,3.112,3.1114,3.1119,3.1125,3.1178,3.1219,3.1136,3.1139,3.1317,3.1322,3.1326,3.1399,0,0,0,0,0,0,3.1062,3.1073,3.1103,3.1106,3.1114,3.1188,3.1126,3.1122,3.1137,3.113,3.1136,3.1134,3.1117,3.1173,3.1181,3.1222,3.1141,3.1314,3.1319,3.1325,3.1392,3.1405,3.1416,0,0,0,0,0,3.1059,3.1123,3.1105,3.1114,3.1151,3.119,3.1195,3.1175,3.1141,3.117,3.1165,3.1134,3.1213,3.1179,3.1188,3.123,3.1311,3.1318,3.1324,3.1387,3.1402,3.1415,0,0,0,0,0,0,3.1125,3.1123,3.1103,3.117,3.1181,3.118,3.1217,3.1192,3.1213,3.1205,3.1179,3.1181,3.1238,3.124,3.1201,3.1304,3.1256,3.1265,3.1301,3.1315,3.1327,3.1324,3.1144,0,0,0,0,0,3.1148,3.118,3.1176,3.1235,3.1242,3.1229,3.1245,3.1228,3.1238,3.1243,3.1242,3.1252,3.1279,3.1298,3.1322,3.1393,3.1392,3.1426,3.1438,3.1447,3.1455,3.149,3.1505,3.135,3.1349,3.1349,0,0,3.1194,3.1197,3.1219,3.1249,3.1255,3.1288,3.1233,3.1271,3.1295,3.1248,3.1298,3.1298,3.1308,3.1369,3.1396,3.1372,3.1498,3.1456,3.1464,3.1466,3.1498,3.1513,3.1526,3.1354,3.1353,3.1353,0,0,3.1295,3.1301,3.135,3.1358,3.1368,3.1359,3.1371,3.1374,3.1372,3.1421,3.1387,3.1415,3.1462,3.147,3.1481,3.1584,3.1555,3.1593,3.1653,3.1688,3.17,3.171,3.1745,3.1758,3.16,3.1601,3.1601,0,3.1351,3.14,3.1378,3.1418,3.1432,3.1391,3.144,3.1448,3.1467,3.1476,3.1449,3.1507,3.1511,3.1573,3.1598,3.1608,3.162,3.1591,3.17,3.171,3.172,3.1753,3.1766,3.1605,3.1604,3.1604,3.1604,0,3.1468,3.1502,3.1541,3.1559,3.1576,3.1621,3.1604,3.1625,3.1607,3.16,3.165,3.1654,3.1677,3.1691,3.1674,3.175,3.1735,3.1705,3.1655,3.1739,3.177,3.1782,3.1611,3.161,3.1608,3.1607,0,0,3.1611,3.1616,3.163,3.1637,3.1645,3.1671,3.1713,3.1736,3.1753,3.1767,3.18,3.1842,3.1813,3.1825,3.1808,3.1839,3.1918,3.1804,3.1804,3.1824,3.2,3.2022,3.2037,3.19,3.1902,3.1904,3.1999,0,3.1709,3.178,3.1761,3.1832,3.1863,3.1825,3.1861,3.187,3.1864,3.1889,3.1883,3.1911,3.1873,3.1879,3.1908,3.1902,3.1953,3.1896,3.1929,3.1931,3.1926,3.2053,3.2076,3.2165,3.2011,3.2013,3.2014,0,3.1833,3.1851,3.1925,3.1927,3.1939,3.1972,3.199,3.2015,3.2024,3.2017,3.203,3.2007,3.2047,3.1999,3.2053,3.2014,3.2027,3.2026,3.2029,3.203,3.1976,3.2056,3.2193,3.2206,3.2033,3.2031,3.203,0,3.1927,3.197,3.2019,3.2027,3.2031,3.2054,3.2057,3.2063,3.2077,3.2094,3.2103,3.2124,3.2136,3.2152,3.2135,3.2102,3.2191,3.2142,3.2185,3.2186,3.2205,3.2203,3.2344,3.2216,3.2216,3.2216,3.2215,0,3.2038,3.2084,3.2062,3.2092,3.2142,3.2119,3.217,3.2168,3.2173,3.2201,3.217,3.2198,3.2174,3.2199,3.2186,3.2231,3.2237,3.2232,3.2228,3.2234,3.2234,3.2241,3.2234,3.2219,3.2218,3.2218,3.2217,0,3.2151,3.2138,3.2189,3.2188,3.2189,3.2226,3.2225,3.2252,3.2244,3.2281,3.2288,3.2276,3.2303,3.2288,3.2317,3.2308,3.2366,3.2354,3.2363,3.2359,3.2403,3.2399,3.2552,3.257,3.2432,3.2433,3.2434,0,3.2222,3.2256,3.2259,3.2276,3.228,3.2308,3.2322,3.2301,3.2318,3.2329,3.2355,3.238,3.2398,3.2444,3.2437,3.2459,3.2446,3.2498,3.2449,3.2453,3.2444,3.2442,3.2444,3.2507,3.2509,3.251,3.2512,0,3.2348,3.2339,3.2362,3.2382,3.24,3.2415,3.2427,3.2442,3.2421,3.2441,3.2468,3.2483,3.2512,3.2536,3.2554,3.2556,3.253,3.2527,3.2538,3.2544,3.2547,3.2544,3.2388,3.2523,3.2522,3.2521,3.2521,3.252,3.2441,3.2469,3.2475,3.25,3.2507,3.2518,3.2543,3.2539,3.2561,3.2583,3.2569,3.2601,3.2607,3.2629,3.2634,3.2658,3.2637,3.2654,3.2657,3.2661,3.2666,3.2545,3.2662,3.2661,3.2661,3.2661,3.266,0,3.2563,3.2565,3.2589,3.2606,3.2626,3.26,3.2612,3.263,3.2658,3.2666,3.2685,3.2716,3.274,3.2735,3.2755,3.2776,3.2764,3.2782,3.2779,3.278,3.2685,3.2672,3.2791,3.2791,3.2791,3.279,3.279,3.279,3.2629,3.2675,3.2667,3.2715,3.2716,3.2747,3.2756,3.2766,3.2772,3.2808,3.2827,3.2824,3.2826,3.2847,3.2867,3.2865,3.2873,3.2895,3.2888,3.2799,3.2787,3.2774,3.2762,3.2897,3.2897,3.298,3.2981,3.2982]}]]